Time,TemperatureF,DewpointF,PressureIn,WindDirection,WindDirectionDegrees,WindSpeedMPH,WindSpeedGustMPH,Humidity,HourlyPrecipIn,Conditions,Clouds,dailyrainin,SoftwareType,DateUTC
2013-07-09 00:01:00,69.3,67.8,30.07,NE,45,0.0,0.0,95,0.00,FEW,,0.00,WeatherDisplay:10.37,2013-07-09 04:01:00,
2013-07-09 00:06:00,69.3,67.8,30.07,South,180,0.0,0.0,95,0.00,CLR,,0.00,WeatherDisplay:10.37,2013-07-09 04:06:00,
2013-07-09 00:11:00,69.1,67.6,30.07,SSE,158,0.0,0.0,95,0.00,CLR,,0.00,WeatherDisplay:10.37,2013-07-09 04:11:00,
2013-07-09 00:16:00,69.1,67.6,30.08,SSE,158,0.0,0.0,95,0.00,CLR,,0.00,WeatherDisplay:10.37,2013-07-09 04:16:00,
2013-07-09 00:21:00,68.9,67.4,30.08,NE,45,0.0,0.0,95,0.00,CLR,,0.00,WeatherDisplay:10.37,2013-07-09 04:21:00,
2013-07-09 00:26:00,68.9,67.4,30.08,West,270,0.0,0.0,95,0.00,CLR,,0.00,WeatherDisplay:10.37,2013-07-09 04:26:00,
2013-07-09 00:31:00,68.7,67.2,30.08,NE,45,0.0,0.0,95,0.00,CLR,,0.00,WeatherDisplay:10.37,2013-07-09 04:31:00,
2013-07-09 00:36:00,68.7,67.2,30.08,SSW,202,0.0,0.0,95,0.00,CLR,,0.00,WeatherDisplay:10.37,2013-07-09 04:36:00,
2013-07-09 00:41:00,68.5,67.0,30.08,NNW,338,0.0,0.0,95,0.00,CLR,,0.00,WeatherDisplay:10.37,2013-07-09 04:41:00,
2013-07-09 00:46:00,68.5,67.3,30.08,SE,135,0.0,0.0,96,0.00,CLR,,0.00,WeatherDisplay:10.37,2013-07-09 04:46:00,
2013-07-09 00:51:00,68.4,67.2,30.08,ESE,112,0.0,0.0,96,0.00,CLR,,0.00,WeatherDisplay:10.37,2013-07-09 04:51:00,
2013-07-09 00:56:00,68.4,67.2,30.08,SE,135,0.0,0.0,96,0.00,CLR,,0.00,WeatherDisplay:10.37,2013-07-09 04:56:00,
2013-07-09 01:01:00,68.4,67.2,30.08,NNE,22,0.0,0.0,96,0.00,CLR,,0.00,WeatherDisplay:10.37,2013-07-09 05:01:00,
2013-07-09 01:06:00,68.2,67.0,30.08,SE,135,0.0,0.0,96,0.00,CLR,,0.00,WeatherDisplay:10.37,2013-07-09 05:06:00,
2013-07-09 01:11:00,68.2,67.3,30.08,ENE,68,0.0,0.0,97,0.00,CLR,,0.00,WeatherDisplay:10.37,2013-07-09 05:11:00,
2013-07-09 01:16:00,68.0,67.1,30.07,ENE,68,0.0,0.0,97,0.00,CLR,,0.00,WeatherDisplay:10.37,2013-07-09 05:16:00,
2013-07-09 01:21:00,68.0,67.1,30.07,ENE,68,0.0,0.0,97,0.00,CLR,,0.00,WeatherDisplay:10.37,2013-07-09 05:21:00,
2013-07-09 01:26:00,68.0,66.8,30.08,ENE,68,0.0,0.0,96,0.00,CLR,,0.00,WeatherDisplay:10.37,2013-07-09 05:26:00,
2013-07-09 01:31:00,67.8,66.9,30.08,NW,315,0.0,0.0,97,0.00,CLR,,0.00,WeatherDisplay:10.37,2013-07-09 05:31:00,
2013-07-09 01:36:00,67.8,66.9,30.08,SSW,202,0.0,0.0,97,0.00,CLR,,0.00,WeatherDisplay:10.37,2013-07-09 05:36:00,
2013-07-09 01:41:00,67.8,66.9,30.08,SSW,202,0.0,0.0,97,0.00,CLR,,0.00,WeatherDisplay:10.37,2013-07-09 05:41:00,
2013-07-09 01:46:00,67.8,66.9,30.08,SSW,202,0.0,0.0,97,0.00,CLR,,0.00,WeatherDisplay:10.37,2013-07-09 05:46:00,
2013-07-09 01:51:00,67.6,66.7,30.08,ESE,112,0.0,0.0,97,0.00,CLR,,0.00,WeatherDisplay:10.37,2013-07-09 05:51:00,
2013-07-09 01:56:00,67.6,66.7,30.08,SE,135,0.0,0.0,97,0.00,CLR,,0.00,WeatherDisplay:10.37,2013-07-09 05:56:00,
2013-07-09 02:01:00,67.6,66.7,30.08,West,270,0.0,0.0,97,0.00,CLR,,0.00,WeatherDisplay:10.37,2013-07-09 06:01:00,
2013-07-09 02:06:00,67.6,66.7,30.07,SE,135,0.0,0.0,97,0.00,CLR,,0.00,WeatherDisplay:10.37,2013-07-09 06:06:00,
2013-07-09 02:11:00,67.6,66.7,30.07,SE,135,0.0,0.0,97,0.00,CLR,,0.00,WeatherDisplay:10.37,2013-07-09 06:11:00,
2013-07-09 02:16:00,67.5,66.9,30.07,SSW,202,0.0,0.0,98,0.00,CLR,,0.00,WeatherDisplay:10.37,2013-07-09 06:16:00,
2013-07-09 02:21:00,67.5,66.9,30.07,SW,225,0.0,0.0,98,0.00,CLR,,0.00,WeatherDisplay:10.37,2013-07-09 06:21:00,
2013-07-09 02:26:00,67.5,66.9,30.07,South,180,0.0,0.0,98,0.00,CLR,,0.00,WeatherDisplay:10.37,2013-07-09 06:26:00,
2013-07-09 02:31:00,67.3,66.7,30.07,South,180,0.0,0.0,98,0.00,CLR,,0.00,WeatherDisplay:10.37,2013-07-09 06:31:00,
2013-07-09 02:36:00,67.3,66.7,30.07,SE,135,0.0,0.0,98,0.00,CLR,,0.00,WeatherDisplay:10.37,2013-07-09 06:36:00,
2013-07-09 02:41:00,67.3,66.7,30.08,SSE,158,0.0,0.0,98,0.00,CLR,,0.00,WeatherDisplay:10.37,2013-07-09 06:41:00,
2013-07-09 02:46:00,67.3,66.7,30.08,SSE,158,0.0,0.0,98,0.00,CLR,,0.00,WeatherDisplay:10.37,2013-07-09 06:46:00,
2013-07-09 02:51:00,67.3,66.7,30.08,East,90,0.0,0.0,98,0.00,CLR,,0.00,WeatherDisplay:10.37,2013-07-09 06:51:00,
2013-07-09 02:56:00,67.3,66.7,30.08,SW,225,0.0,0.0,98,0.00,CLR,,0.00,WeatherDisplay:10.37,2013-07-09 06:56:00,
2013-07-09 03:01:00,67.3,66.7,30.08,SW,225,0.0,0.0,98,0.00,CLR,,0.00,WeatherDisplay:10.37,2013-07-09 07:01:00,
2013-07-09 03:06:00,67.1,66.5,30.08,SW,225,0.0,0.0,98,0.00,CLR,,0.00,WeatherDisplay:10.37,2013-07-09 07:06:00,
2013-07-09 03:11:00,67.1,66.5,30.08,SSW,202,0.0,0.0,98,0.00,CLR,,0.00,WeatherDisplay:10.37,2013-07-09 07:11:00,
2013-07-09 03:16:00,67.1,66.8,30.07,SW,225,0.0,0.0,99,0.00,CLR,,0.00,WeatherDisplay:10.37,2013-07-09 07:16:00,
2013-07-09 03:21:00,67.1,66.8,30.07,South,180,0.0,0.0,99,0.00,CLR,,0.00,WeatherDisplay:10.37,2013-07-09 07:21:00,
2013-07-09 03:26:00,67.1,66.8,30.07,SSE,158,0.0,0.0,99,0.00,CLR,,0.00,WeatherDisplay:10.37,2013-07-09 07:26:00,
2013-07-09 03:31:00,67.1,66.8,30.07,ESE,112,0.0,0.0,99,0.00,CLR,,0.00,WeatherDisplay:10.37,2013-07-09 07:31:00,
2013-07-09 03:36:00,66.9,66.6,30.07,WNW,292,0.0,0.0,99,0.00,CLR,,0.00,WeatherDisplay:10.37,2013-07-09 07:36:00,
2013-07-09 03:41:00,66.9,66.6,30.07,SW,225,0.0,0.0,99,0.00,CLR,,0.00,WeatherDisplay:10.37,2013-07-09 07:41:00,
2013-07-09 03:46:00,66.7,66.4,30.07,WSW,248,0.0,0.0,99,0.00,CLR,,0.00,WeatherDisplay:10.37,2013-07-09 07:46:00,
2013-07-09 03:52:00,66.7,66.4,30.07,West,270,0.0,0.0,99,0.00,CLR,,0.00,WeatherDisplay:10.37,2013-07-09 07:52:00,
2013-07-09 03:57:00,66.7,66.4,30.07,SW,225,0.0,0.0,99,0.00,CLR,,0.00,WeatherDisplay:10.37,2013-07-09 07:57:00,
2013-07-09 04:02:00,66.7,66.4,30.07,SW,225,0.0,0.0,99,0.00,CLR,,0.00,WeatherDisplay:10.37,2013-07-09 08:02:00,
2013-07-09 04:07:00,66.7,66.4,30.07,SSW,202,0.0,0.0,99,0.00,CLR,,0.00,WeatherDisplay:10.37,2013-07-09 08:07:00,
2013-07-09 04:12:00,66.7,66.4,30.07,ESE,112,0.0,0.0,99,0.00,CLR,,0.00,WeatherDisplay:10.37,2013-07-09 08:12:00,
2013-07-09 04:17:00,66.7,66.4,30.07,ESE,112,0.0,0.0,99,0.00,CLR,,0.00,WeatherDisplay:10.37,2013-07-09 08:17:00,
2013-07-09 04:22:00,66.7,66.4,30.07,SE,135,0.0,0.0,99,0.00,CLR,,0.00,WeatherDisplay:10.37,2013-07-09 08:22:00,
2013-07-09 04:27:00,66.7,66.4,30.08,ESE,112,0.0,0.0,99,0.00,CLR,,0.00,WeatherDisplay:10.37,2013-07-09 08:27:00,
2013-07-09 04:32:00,66.7,66.4,30.08,East,90,0.0,0.0,99,0.00,CLR,,0.00,WeatherDisplay:10.37,2013-07-09 08:32:00,
2013-07-09 04:37:00,66.7,66.4,30.08,East,90,0.0,0.0,99,0.00,CLR,,0.00,WeatherDisplay:10.37,2013-07-09 08:37:00,
2013-07-09 04:42:00,66.6,66.3,30.08,NNW,338,0.0,0.0,99,0.00,CLR,,0.00,WeatherDisplay:10.37,2013-07-09 08:42:00,
2013-07-09 04:47:00,66.6,66.3,30.08,South,180,0.0,0.0,99,0.00,CLR,,0.00,WeatherDisplay:10.37,2013-07-09 08:47:00,
2013-07-09 04:52:00,66.6,66.3,30.08,South,180,0.0,0.0,99,0.00,CLR,,0.00,WeatherDisplay:10.37,2013-07-09 08:52:00,
2013-07-09 04:57:00,66.6,66.3,30.08,South,180,0.0,0.0,99,0.00,CLR,,0.00,WeatherDisplay:10.37,2013-07-09 08:57:00,
2013-07-09 05:02:00,66.6,66.3,30.08,South,180,0.0,0.0,99,0.00,CLR,,0.00,WeatherDisplay:10.37,2013-07-09 09:02:00,
2013-07-09 05:07:00,66.6,66.3,30.08,South,180,0.0,0.0,99,0.00,CLR,,0.00,WeatherDisplay:10.37,2013-07-09 09:07:00,
2013-07-09 05:12:00,66.6,66.3,30.08,South,180,0.0,0.0,99,0.00,CLR,,0.00,WeatherDisplay:10.37,2013-07-09 09:12:00,
2013-07-09 05:17:00,66.6,66.3,30.08,South,180,0.0,0.0,99,0.00,CLR,,0.00,WeatherDisplay:10.37,2013-07-09 09:17:00,
2013-07-09 05:22:00,66.6,66.3,30.08,South,180,0.0,0.0,99,0.00,CLR,,0.00,WeatherDisplay:10.37,2013-07-09 09:22:00,
2013-07-09 05:27:00,66.6,66.3,30.09,South,180,0.0,0.0,99,0.00,CLR,,0.00,WeatherDisplay:10.37,2013-07-09 09:27:00,
2013-07-09 05:32:00,66.6,66.3,30.09,South,180,0.0,0.0,99,0.00,CLR,,0.00,WeatherDisplay:10.37,2013-07-09 09:32:00,
2013-07-09 05:37:00,66.6,66.3,30.09,South,180,0.0,0.0,99,0.00,CLR,,0.00,WeatherDisplay:10.37,2013-07-09 09:37:00,
2013-07-09 05:42:00,66.6,66.3,30.09,South,180,0.0,0.0,99,0.00,CLR,,0.00,WeatherDisplay:10.37,2013-07-09 09:42:00,
2013-07-09 05:47:00,66.6,66.3,30.09,SE,135,0.0,0.0,99,0.00,CLR,,0.00,WeatherDisplay:10.37,2013-07-09 09:47:00,
2013-07-09 05:52:00,66.6,66.3,30.09,SE,135,0.0,0.0,99,0.00,CLR,,0.00,WeatherDisplay:10.37,2013-07-09 09:52:00,
2013-07-09 05:57:00,66.6,66.3,30.09,SE,135,0.0,0.0,99,0.00,CLR,,0.00,WeatherDisplay:10.37,2013-07-09 09:57:00,
2013-07-09 06:02:00,66.6,66.3,30.08,SE,135,0.0,0.0,99,0.00,CLR,,0.00,WeatherDisplay:10.37,2013-07-09 10:02:00,
2013-07-09 06:07:00,66.6,66.3,30.08,SW,225,0.0,0.0,99,0.00,CLR,,0.00,WeatherDisplay:10.37,2013-07-09 10:07:00,
2013-07-09 06:12:00,66.6,66.3,30.08,NNE,22,0.0,0.0,99,0.00,CLR,,0.00,WeatherDisplay:10.37,2013-07-09 10:12:00,
2013-07-09 06:17:00,66.6,66.3,30.10,South,180,0.0,0.0,99,0.00,CLR,,0.00,WeatherDisplay:10.37,2013-07-09 10:17:00,
2013-07-09 06:22:00,66.7,66.4,30.10,SSW,202,0.0,0.0,99,0.00,CLR,,0.00,WeatherDisplay:10.37,2013-07-09 10:22:00,
2013-07-09 06:27:00,66.7,66.4,30.11,SSW,202,0.0,0.0,99,0.00,CLR,,0.00,WeatherDisplay:10.37,2013-07-09 10:27:00,
2013-07-09 06:32:00,66.7,66.4,30.11,SSW,202,0.0,0.0,99,0.00,CLR,,0.00,WeatherDisplay:10.37,2013-07-09 10:32:00,
2013-07-09 06:37:00,66.9,66.6,30.11,SSW,202,0.0,0.0,99,0.00,CLR,,0.00,WeatherDisplay:10.37,2013-07-09 10:37:00,
2013-07-09 06:42:00,66.9,66.6,30.11,SSW,202,0.0,0.0,99,0.00,CLR,,0.00,WeatherDisplay:10.37,2013-07-09 10:42:00,
2013-07-09 06:47:00,67.1,66.8,30.11,South,180,0.0,0.0,99,0.00,CLR,,0.00,WeatherDisplay:10.37,2013-07-09 10:47:00,
2013-07-09 06:52:00,67.1,66.8,30.11,South,180,0.0,0.0,99,0.00,CLR,,0.00,WeatherDisplay:10.37,2013-07-09 10:52:00,
2013-07-09 06:57:00,67.3,67.0,30.11,South,180,0.0,0.0,99,0.00,CLR,,0.00,WeatherDisplay:10.37,2013-07-09 10:57:00,
2013-07-09 07:02:00,67.5,67.2,30.10,South,180,0.0,0.0,99,0.00,CLR,,0.00,WeatherDisplay:10.37,2013-07-09 11:02:00,
2013-07-09 07:07:00,67.6,67.3,30.10,South,180,0.0,0.0,99,0.00,CLR,,0.00,WeatherDisplay:10.37,2013-07-09 11:07:00,
2013-07-09 07:12:00,67.6,67.3,30.10,South,180,0.0,0.0,99,0.00,CLR,,0.00,WeatherDisplay:10.37,2013-07-09 11:12:00,
2013-07-09 07:17:00,68.0,67.7,30.11,NE,45,0.0,0.0,99,0.00,CLR,,0.00,WeatherDisplay:10.37,2013-07-09 11:17:00,
2013-07-09 07:22:00,68.2,67.9,30.11,NE,45,0.0,0.0,99,0.00,CLR,,0.00,WeatherDisplay:10.37,2013-07-09 11:22:00,
2013-07-09 07:27:00,68.2,67.9,30.11,North,360,0.0,0.0,99,0.00,CLR,,0.00,WeatherDisplay:10.37,2013-07-09 11:27:00,
2013-07-09 07:32:00,68.5,68.2,30.11,North,360,0.0,0.0,99,0.00,CLR,,0.00,WeatherDisplay:10.37,2013-07-09 11:32:00,
2013-07-09 07:37:00,68.7,68.4,30.11,ESE,112,0.0,0.0,99,0.00,CLR,,0.00,WeatherDisplay:10.37,2013-07-09 11:37:00,
2013-07-09 07:42:00,68.9,68.6,30.11,NNW,338,0.0,0.0,99,0.00,CLR,,0.00,WeatherDisplay:10.37,2013-07-09 11:42:00,
2013-07-09 07:47:00,69.3,69.0,30.11,SW,225,0.0,0.0,99,0.00,CLR,,0.00,WeatherDisplay:10.37,2013-07-09 11:47:00,
2013-07-09 07:52:00,69.6,69.3,30.11,SW,225,0.0,0.0,99,0.00,CLR,,0.00,WeatherDisplay:10.37,2013-07-09 11:52:00,
2013-07-09 07:57:00,70.0,69.1,30.11,WNW,292,0.0,0.0,97,0.00,CLR,,0.00,WeatherDisplay:10.37,2013-07-09 11:57:00,
2013-07-09 08:02:00,70.3,68.8,30.12,WNW,292,0.0,0.0,95,0.00,CLR,,0.00,WeatherDisplay:10.37,2013-07-09 12:02:00,
2013-07-09 08:07:00,70.9,69.4,30.12,WNW,292,0.0,0.0,95,0.00,CLR,,0.00,WeatherDisplay:10.37,2013-07-09 12:07:00,
2013-07-09 08:12:00,71.2,69.4,30.12,SSE,158,0.0,0.0,94,0.00,CLR,,0.00,WeatherDisplay:10.37,2013-07-09 12:12:00,
2013-07-09 08:17:00,71.8,70.0,30.11,NE,45,0.0,0.0,94,0.00,CLR,,0.00,WeatherDisplay:10.37,2013-07-09 12:17:00,
2013-07-09 08:22:00,72.5,70.0,30.11,SSE,158,0.0,0.0,92,0.00,CLR,,0.00,WeatherDisplay:10.37,2013-07-09 12:22:00,
2013-07-09 08:27:00,73.0,70.9,30.11,ESE,112,0.0,0.0,93,0.00,CLR,,0.00,WeatherDisplay:10.37,2013-07-09 12:27:00,
2013-07-09 08:32:00,73.6,70.5,30.11,SSE,158,0.0,0.0,90,0.00,CLR,,0.00,WeatherDisplay:10.37,2013-07-09 12:32:00,
2013-07-09 08:37:00,73.9,70.5,30.11,South,180,0.0,0.0,89,0.00,CLR,,0.00,WeatherDisplay:10.37,2013-07-09 12:37:00,
2013-07-09 08:42:00,74.3,70.8,30.11,SSE,158,0.0,0.0,89,0.00,CLR,,0.00,WeatherDisplay:10.37,2013-07-09 12:42:00,
2013-07-09 08:47:00,74.7,71.2,30.11,South,180,0.0,0.0,89,0.00,CLR,,0.00,WeatherDisplay:10.37,2013-07-09 12:47:00,
2013-07-09 08:52:00,74.7,71.2,30.11,WSW,248,0.0,0.0,89,0.00,CLR,,0.00,WeatherDisplay:10.37,2013-07-09 12:52:00,
2013-07-09 08:57:00,75.0,71.2,30.11,SSW,202,0.0,0.0,88,0.00,CLR,,0.00,WeatherDisplay:10.37,2013-07-09 12:57:00,
2013-07-09 09:02:00,75.0,70.9,30.11,SW,225,0.0,0.0,87,0.00,BKN,,0.00,WeatherDisplay:10.37,2013-07-09 13:02:00,
2013-07-09 09:07:00,75.2,71.1,30.11,SSW,202,0.0,0.0,87,0.00,BKN,,0.00,WeatherDisplay:10.37,2013-07-09 13:07:00,
2013-07-09 09:12:00,75.4,71.3,30.11,SSW,202,0.0,0.0,87,0.00,BKN,,0.00,WeatherDisplay:10.37,2013-07-09 13:12:00,
2013-07-09 09:17:00,75.6,71.5,30.11,SW,225,0.0,0.0,87,0.00,BKN,,0.00,WeatherDisplay:10.37,2013-07-09 13:17:00,
2013-07-09 09:22:00,75.7,70.9,30.11,SSW,202,0.0,0.0,85,0.00,BKN,,0.00,WeatherDisplay:10.37,2013-07-09 13:22:00,
2013-07-09 09:27:00,75.9,70.4,30.11,SSW,202,0.0,0.0,83,0.00,BKN,,0.00,WeatherDisplay:10.37,2013-07-09 13:27:00,
2013-07-09 09:32:00,76.1,70.6,30.11,SE,135,0.0,0.0,83,0.00,BKN,,0.00,WeatherDisplay:10.37,2013-07-09 13:32:00,
2013-07-09 09:37:00,76.5,70.6,30.11,WSW,248,0.0,0.0,82,0.00,BKN,,0.00,WeatherDisplay:10.37,2013-07-09 13:37:00,
2013-07-09 09:42:00,76.5,70.6,30.11,WSW,248,0.0,0.0,82,0.00,BKN,,0.00,WeatherDisplay:10.37,2013-07-09 13:42:00,
2013-07-09 09:47:00,76.5,70.2,30.11,SSE,158,0.0,0.0,81,0.00,BKN,,0.00,WeatherDisplay:10.37,2013-07-09 13:47:00,
2013-07-09 09:52:00,76.5,70.2,30.11,SSE,158,0.0,0.0,81,0.00,BKN,,0.00,WeatherDisplay:10.37,2013-07-09 13:52:00,
2013-07-09 09:57:00,76.5,70.9,30.11,SSE,158,0.0,0.0,83,0.00,BKN,,0.00,WeatherDisplay:10.37,2013-07-09 13:57:00,
2013-07-09 10:02:00,76.5,70.6,30.11,NNW,338,0.0,0.0,82,0.00,BKN,,0.00,WeatherDisplay:10.37,2013-07-09 14:02:00,
2013-07-09 10:07:00,76.6,71.4,30.11,West,270,0.0,0.0,84,0.00,BKN,,0.00,WeatherDisplay:10.37,2013-07-09 14:07:00,
2013-07-09 10:12:00,76.6,71.4,30.11,SSE,158,0.0,0.0,84,0.00,FEW,,0.00,WeatherDisplay:10.37,2013-07-09 14:12:00,
2013-07-09 10:17:00,77.0,71.4,30.11,WNW,292,0.0,0.0,83,0.00,FEW,,0.00,WeatherDisplay:10.37,2013-07-09 14:17:00,
2013-07-09 10:22:00,77.4,71.8,30.11,ESE,112,0.0,0.0,83,0.00,FEW,,0.00,WeatherDisplay:10.37,2013-07-09 14:22:00,
2013-07-09 10:27:00,77.7,71.8,30.10,WSW,248,0.0,0.0,82,0.00,FEW,,0.00,WeatherDisplay:10.37,2013-07-09 14:27:00,
2013-07-09 10:32:00,77.7,71.8,30.10,WSW,248,0.0,0.0,82,0.00,FEW,,0.00,WeatherDisplay:10.37,2013-07-09 14:32:00,
2013-07-09 10:37:00,77.7,71.8,30.10,WSW,248,0.0,0.0,82,0.00,FEW,,0.00,WeatherDisplay:10.37,2013-07-09 14:37:00,
2013-07-09 10:42:00,77.7,71.8,30.10,WSW,248,0.0,0.0,82,0.00,FEW,,0.00,WeatherDisplay:10.37,2013-07-09 14:42:00,
2013-07-09 10:47:00,77.7,71.8,30.10,WSW,248,0.0,0.0,82,0.00,FEW,,0.00,WeatherDisplay:10.37,2013-07-09 14:47:00,
2013-07-09 10:52:00,77.7,71.8,30.10,WSW,248,0.0,0.0,82,0.00,FEW,,0.00,WeatherDisplay:10.37,2013-07-09 14:52:00,
2013-07-09 10:57:00,77.7,71.8,30.10,WSW,248,0.0,0.0,82,0.00,FEW,,0.00,WeatherDisplay:10.37,2013-07-09 14:57:00,
2013-07-09 11:02:00,77.7,71.8,30.10,WSW,248,0.0,0.0,82,0.00,CLR,,0.00,WeatherDisplay:10.37,2013-07-09 15:02:00,
2013-07-09 11:07:00,77.7,71.8,30.10,WSW,248,0.0,0.0,82,0.00,CLR,,0.00,WeatherDisplay:10.37,2013-07-09 15:07:00,
2013-07-09 11:12:00,80.1,72.2,30.11,South,180,0.0,0.0,77,0.00,CLR,,0.00,WeatherDisplay:10.37,2013-07-09 15:12:00,
2013-07-09 11:17:00,80.4,71.3,30.11,NE,45,0.0,0.0,74,0.00,CLR,,0.00,WeatherDisplay:10.37,2013-07-09 15:17:00,
2013-07-09 11:22:00,80.8,70.9,30.11,SSE,158,0.0,0.0,72,0.00,CLR,,0.00,WeatherDisplay:10.37,2013-07-09 15:22:00,
2013-07-09 11:27:00,80.4,70.5,30.11,WNW,292,0.0,0.0,72,0.00,CLR,,0.00,WeatherDisplay:10.37,2013-07-09 15:27:00,
2013-07-09 11:32:00,80.4,70.5,30.11,ESE,112,0.0,0.0,72,0.00,CLR,,0.00,WeatherDisplay:10.37,2013-07-09 15:32:00,
2013-07-09 11:37:00,82.0,70.8,30.11,South,180,0.0,0.0,69,0.00,CLR,,0.00,WeatherDisplay:10.37,2013-07-09 15:37:00,
2013-07-09 11:42:00,81.3,71.0,30.11,South,180,0.0,0.0,71,0.00,CLR,,0.00,WeatherDisplay:10.37,2013-07-09 15:42:00,
2013-07-09 11:47:00,80.1,70.7,30.11,East,90,0.0,0.0,73,0.00,CLR,,0.00,WeatherDisplay:10.37,2013-07-09 15:47:00,
2013-07-09 11:52:00,83.5,70.9,30.10,SE,135,0.0,0.0,66,0.00,CLR,,0.00,WeatherDisplay:10.37,2013-07-09 15:52:00,
2013-07-09 11:57:00,84.0,71.9,30.10,SSW,202,0.0,0.0,67,0.00,CLR,,0.00,WeatherDisplay:10.37,2013-07-09 15:57:00,
2013-07-09 12:02:00,81.9,71.2,30.11,SSE,158,0.0,0.0,70,0.00,CLR,,0.00,WeatherDisplay:10.37,2013-07-09 16:02:00,
2013-07-09 12:07:00,82.8,72.0,30.11,South,180,0.0,0.0,70,0.00,CLR,,0.00,WeatherDisplay:10.37,2013-07-09 16:07:00,
2013-07-09 12:12:00,82.6,71.0,30.10,NE,45,0.0,0.0,68,0.00,FEW,,0.00,WeatherDisplay:10.37,2013-07-09 16:12:00,
2013-07-09 12:17:00,81.3,70.6,30.10,SE,135,0.0,0.0,70,0.00,FEW,,0.00,WeatherDisplay:10.37,2013-07-09 16:17:00,
2013-07-09 12:22:00,81.5,70.8,30.10,ESE,112,0.0,0.0,70,0.00,FEW,,0.00,WeatherDisplay:10.37,2013-07-09 16:22:00,
2013-07-09 12:27:00,82.4,70.3,30.10,WSW,248,0.0,0.0,67,0.00,FEW,,0.00,WeatherDisplay:10.37,2013-07-09 16:27:00,
2013-07-09 12:32:00,83.8,71.7,30.10,South,180,0.0,0.0,67,0.00,FEW,,0.00,WeatherDisplay:10.37,2013-07-09 16:32:00,
2013-07-09 12:37:00,86.0,71.9,30.09,NNE,22,0.0,0.0,63,0.00,FEW,,0.00,WeatherDisplay:10.37,2013-07-09 16:37:00,
2013-07-09 12:42:00,83.1,72.3,30.09,South,180,0.0,0.0,70,0.00,FEW,,0.00,WeatherDisplay:10.37,2013-07-09 16:42:00,
2013-07-09 12:47:00,83.7,72.4,30.09,East,90,0.0,0.0,69,0.00,FEW,,0.00,WeatherDisplay:10.37,2013-07-09 16:47:00,
2013-07-09 12:52:00,85.3,71.7,30.09,WSW,248,0.0,0.0,64,0.00,FEW,,0.00,WeatherDisplay:10.37,2013-07-09 16:52:00,
2013-07-09 12:57:00,86.2,72.1,30.09,NNE,22,0.0,0.0,63,0.00,FEW,,0.00,WeatherDisplay:10.37,2013-07-09 16:57:00,
2013-07-09 13:02:00,86.5,71.0,30.09,South,180,0.0,0.0,60,0.00,FEW,,0.00,WeatherDisplay:10.37,2013-07-09 17:02:00,
2013-07-09 13:07:00,86.7,71.6,30.09,NE,45,0.0,0.0,61,0.00,FEW,,0.00,WeatherDisplay:10.37,2013-07-09 17:07:00,
2013-07-09 13:12:00,86.5,71.0,30.09,South,180,0.0,0.0,60,0.00,FEW,,0.00,WeatherDisplay:10.37,2013-07-09 17:12:00,
2013-07-09 13:17:00,86.5,71.0,30.09,SSE,158,0.0,0.0,60,0.00,FEW,,0.00,WeatherDisplay:10.37,2013-07-09 17:17:00,
2013-07-09 13:22:00,86.5,71.9,30.09,South,180,0.0,0.0,62,0.00,FEW,,0.00,WeatherDisplay:10.37,2013-07-09 17:22:00,
2013-07-09 13:27:00,86.4,70.9,30.08,NNE,22,0.0,0.0,60,0.00,FEW,,0.00,WeatherDisplay:10.37,2013-07-09 17:27:00,
2013-07-09 13:32:00,86.4,71.4,30.08,SSW,202,0.0,0.0,61,0.00,FEW,,0.00,WeatherDisplay:10.37,2013-07-09 17:32:00,
2013-07-09 13:37:00,85.6,72.5,30.08,SSW,202,0.0,0.0,65,0.00,FEW,,0.00,WeatherDisplay:10.37,2013-07-09 17:37:00,
2013-07-09 13:42:00,85.6,72.9,30.08,SE,135,0.0,0.0,66,0.00,FEW,,0.00,WeatherDisplay:10.37,2013-07-09 17:42:00,
2013-07-09 13:47:00,85.6,72.5,30.08,SSE,158,0.0,0.0,65,0.00,FEW,,0.00,WeatherDisplay:10.37,2013-07-09 17:47:00,
2013-07-09 13:52:00,85.5,71.5,30.08,ENE,68,0.0,0.0,63,0.00,FEW,,0.00,WeatherDisplay:10.37,2013-07-09 17:52:00,
2013-07-09 13:57:00,85.6,71.6,30.08,South,180,0.0,0.0,63,0.00,FEW,,0.00,WeatherDisplay:10.37,2013-07-09 17:57:00,
2013-07-09 14:02:00,85.3,70.8,30.08,SSW,202,0.0,0.0,62,0.00,BKN,,0.00,WeatherDisplay:10.37,2013-07-09 18:02:00,
2013-07-09 14:07:00,85.5,71.5,30.08,SSW,202,0.0,0.0,63,0.00,BKN,,0.00,WeatherDisplay:10.37,2013-07-09 18:07:00,
2013-07-09 14:12:00,85.6,71.1,30.08,South,180,1.4,2.3,62,0.00,BKN,,0.00,WeatherDisplay:10.37,2013-07-09 18:12:00,
2013-07-09 14:17:00,85.8,72.2,30.08,East,90,0.0,0.0,64,0.00,BKN,,0.00,WeatherDisplay:10.37,2013-07-09 18:17:00,
2013-07-09 14:22:00,85.8,73.6,30.08,ESE,112,0.0,0.0,67,0.00,BKN,,0.00,WeatherDisplay:10.37,2013-07-09 18:22:00,
2013-07-09 14:27:00,85.1,71.5,30.08,South,180,1.7,2.3,64,0.00,BKN,,0.00,WeatherDisplay:10.37,2013-07-09 18:27:00,
2013-07-09 14:32:00,85.6,72.0,30.08,ESE,112,0.0,0.0,64,0.00,BKN,,0.00,WeatherDisplay:10.37,2013-07-09 18:32:00,
2013-07-09 14:37:00,86.0,71.5,30.08,NNE,22,1.8,2.7,62,0.00,BKN,,0.00,WeatherDisplay:10.37,2013-07-09 18:37:00,
2013-07-09 14:42:00,86.0,71.5,30.08,WSW,248,1.1,2.3,62,0.00,BKN,,0.00,WeatherDisplay:10.37,2013-07-09 18:42:00,
2013-07-09 14:47:00,86.0,72.4,30.08,NW,315,0.0,0.0,64,0.00,BKN,,0.00,WeatherDisplay:10.37,2013-07-09 18:47:00,
2013-07-09 14:52:00,86.2,71.6,30.07,SSW,202,0.0,1.2,62,0.00,BKN,,0.00,WeatherDisplay:10.37,2013-07-09 18:52:00,
2013-07-09 14:57:00,85.8,71.3,30.07,ENE,68,2.9,3.5,62,0.00,BKN,,0.00,WeatherDisplay:10.37,2013-07-09 18:57:00,
2013-07-09 15:02:00,85.3,71.3,30.07,ESE,112,0.0,0.0,63,0.00,SCT,,0.00,WeatherDisplay:10.37,2013-07-09 19:02:00,
2013-07-09 15:07:00,85.3,68.8,30.07,SSE,158,0.0,0.0,58,0.00,SCT,,0.00,WeatherDisplay:10.37,2013-07-09 19:07:00,
2013-07-09 15:12:00,85.3,69.3,30.07,SE,135,0.4,1.2,59,0.00,SCT,,0.00,WeatherDisplay:10.37,2013-07-09 19:12:00,
2013-07-09 15:17:00,83.7,68.8,30.06,SSE,158,0.0,0.0,61,0.00,SCT,,0.00,WeatherDisplay:10.37,2013-07-09 19:17:00,
2013-07-09 15:22:00,84.9,70.4,30.06,SE,135,0.0,0.0,62,0.00,SCT,,0.00,WeatherDisplay:10.37,2013-07-09 19:22:00,
2013-07-09 15:27:00,85.3,70.8,30.06,NNE,22,0.0,0.0,62,0.00,SCT,,0.00,WeatherDisplay:10.37,2013-07-09 19:27:00,
2013-07-09 15:32:00,85.5,71.5,30.06,East,90,0.0,0.0,63,0.00,SCT,,0.00,WeatherDisplay:10.37,2013-07-09 19:32:00,
2013-07-09 15:37:00,85.5,71.5,30.06,SSE,158,0.6,2.7,63,0.00,SCT,,0.00,WeatherDisplay:10.37,2013-07-09 19:37:00,
2013-07-09 15:42:00,85.6,71.1,30.06,SSW,202,1.6,2.3,62,0.00,SCT,,0.00,WeatherDisplay:10.37,2013-07-09 19:42:00,
2013-07-09 15:47:00,85.6,70.1,30.06,SSE,158,0.0,0.0,60,0.00,SCT,,0.00,WeatherDisplay:10.37,2013-07-09 19:47:00,
2013-07-09 15:52:00,85.6,72.5,30.06,South,180,0.2,2.3,65,0.00,SCT,,0.00,WeatherDisplay:10.37,2013-07-09 19:52:00,
2013-07-09 15:57:00,85.3,72.2,30.06,ENE,68,0.0,0.0,65,0.00,SCT,,0.00,WeatherDisplay:10.37,2013-07-09 19:57:00,
2013-07-09 16:02:00,85.3,72.2,30.06,South,180,0.0,0.0,65,0.00,SCT,,0.00,WeatherDisplay:10.37,2013-07-09 20:02:00,
2013-07-09 16:07:00,85.3,72.6,30.06,SE,135,0.0,0.0,66,0.00,SCT,,0.00,WeatherDisplay:10.37,2013-07-09 20:07:00,
2013-07-09 16:12:00,84.9,72.3,30.06,South,180,0.0,0.0,66,0.00,BKN,,0.00,WeatherDisplay:10.37,2013-07-09 20:12:00,
2013-07-09 16:17:00,84.6,72.4,30.06,SSE,158,0.8,2.3,67,0.00,BKN,,0.00,WeatherDisplay:10.37,2013-07-09 20:17:00,
2013-07-09 16:22:00,84.0,72.3,30.06,East,90,0.5,2.3,68,0.00,BKN,,0.00,WeatherDisplay:10.37,2013-07-09 20:22:00,
2013-07-09 16:27:00,82.8,72.4,30.06,NNE,22,2.8,3.2,71,0.00,BKN,,0.00,WeatherDisplay:10.37,2013-07-09 20:27:00,
2013-07-09 16:32:00,82.2,71.9,30.06,ENE,68,2.2,3.5,71,0.00,BKN,,0.00,WeatherDisplay:10.37,2013-07-09 20:32:00,
2013-07-09 16:37:00,81.1,72.0,30.06,NE,45,2.7,2.7,74,0.00,BKN,,0.00,WeatherDisplay:10.37,2013-07-09 20:37:00,
2013-07-09 16:42:00,80.2,71.6,30.06,ENE,68,3.3,3.5,75,0.00,BKN,,0.00,WeatherDisplay:10.37,2013-07-09 20:42:00,
2013-07-09 16:47:00,79.5,71.3,30.06,NNE,22,1.7,3.5,76,0.00,BKN,,0.00,WeatherDisplay:10.37,2013-07-09 20:47:00,
2013-07-09 16:52:00,79.3,71.5,30.06,NE,45,0.0,0.0,77,0.00,BKN,,0.00,WeatherDisplay:10.37,2013-07-09 20:52:00,
2013-07-09 16:57:00,79.0,71.2,30.06,East,90,1.2,2.3,77,0.00,BKN,,0.00,WeatherDisplay:10.37,2013-07-09 20:57:00,
2013-07-09 17:02:00,79.0,70.8,30.07,South,180,0.0,0.0,76,0.00,BKN,,0.00,WeatherDisplay:10.37,2013-07-09 21:02:00,
2013-07-09 17:07:00,78.8,71.4,30.07,SE,135,0.5,2.3,78,0.00,BKN,,0.00,WeatherDisplay:10.37,2013-07-09 21:07:00,
2013-07-09 17:12:00,78.8,71.4,30.07,NE,45,0.0,0.0,78,0.00,BKN,,0.00,WeatherDisplay:10.37,2013-07-09 21:12:00,
2013-07-09 17:17:00,78.4,71.3,30.07,NE,45,0.0,0.0,79,0.00,BKN,,0.00,WeatherDisplay:10.37,2013-07-09 21:17:00,
2013-07-09 17:22:00,78.3,71.2,30.07,NNW,338,0.0,0.0,79,0.00,BKN,,0.00,WeatherDisplay:10.37,2013-07-09 21:22:00,
2013-07-09 17:27:00,78.3,71.6,30.07,North,360,0.0,0.0,80,0.00,BKN,,0.00,WeatherDisplay:10.37,2013-07-09 21:27:00,
2013-07-09 17:32:00,77.9,72.0,30.07,ENE,68,0.0,0.0,82,0.00,BKN,,0.00,WeatherDisplay:10.37,2013-07-09 21:32:00,
2013-07-09 17:37:00,77.5,71.9,30.06,ESE,112,0.0,0.0,83,0.00,BKN,,0.00,WeatherDisplay:10.37,2013-07-09 21:37:00,
2013-07-09 17:42:00,77.4,72.5,30.06,NE,45,0.0,0.0,85,0.00,BKN,,0.00,WeatherDisplay:10.37,2013-07-09 21:42:00,
2013-07-09 17:47:00,77.2,72.7,30.06,SSE,158,0.0,0.0,86,0.00,BKN,,0.00,WeatherDisplay:10.37,2013-07-09 21:47:00,
2013-07-09 17:52:00,76.6,72.1,30.06,NE,45,0.0,0.0,86,0.00,BKN,,0.00,WeatherDisplay:10.37,2013-07-09 21:52:00,
2013-07-09 17:57:00,76.5,72.0,30.06,SSW,202,0.0,0.0,86,0.00,BKN,,0.00,WeatherDisplay:10.37,2013-07-09 21:57:00,
2013-07-09 18:02:00,76.1,72.3,30.06,SSE,158,0.0,0.0,88,0.00,BKN,,0.00,WeatherDisplay:10.37,2013-07-09 22:02:00,
2013-07-09 18:07:00,75.9,72.1,30.06,SSE,158,0.0,0.0,88,0.00,BKN,,0.00,WeatherDisplay:10.37,2013-07-09 22:07:00,
2013-07-09 18:12:00,75.7,72.2,30.06,South,180,0.0,0.0,89,0.00,BKN,,0.00,WeatherDisplay:10.37,2013-07-09 22:12:00,
2013-07-09 18:17:00,75.6,72.8,30.06,SSW,202,0.0,0.0,91,0.00,BKN,,0.00,WeatherDisplay:10.37,2013-07-09 22:17:00,
2013-07-09 18:22:00,75.0,73.2,30.06,South,180,0.0,0.0,94,0.00,BKN,,0.00,WeatherDisplay:10.37,2013-07-09 22:22:00,
2013-07-09 18:27:00,74.7,73.2,30.06,South,180,0.0,0.0,95,0.01,RA,,0.01,WeatherDisplay:10.37,2013-07-09 22:27:00,
2013-07-09 18:32:00,74.5,73.0,30.06,South,180,0.0,0.0,95,0.01,-RA,,0.01,WeatherDisplay:10.37,2013-07-09 22:32:00,
2013-07-09 18:37:00,74.3,73.1,30.06,South,180,0.0,0.0,96,0.02,-RA,,0.02,WeatherDisplay:10.37,2013-07-09 22:37:00,
2013-07-09 18:42:00,74.3,73.1,30.06,South,180,0.0,0.0,96,0.02,-RA,,0.02,WeatherDisplay:10.37,2013-07-09 22:42:00,
2013-07-09 18:47:00,74.3,73.4,30.06,South,180,0.0,0.0,97,0.02,-RA,,0.02,WeatherDisplay:10.37,2013-07-09 22:47:00,
2013-07-09 18:52:00,74.3,73.4,30.05,South,180,0.0,0.0,97,0.02,-RA,,0.02,WeatherDisplay:10.37,2013-07-09 22:52:00,
2013-07-09 18:57:00,74.5,73.9,30.05,South,180,0.0,0.0,98,0.02,-RA,,0.02,WeatherDisplay:10.37,2013-07-09 22:57:00,
2013-07-09 19:02:00,74.5,73.9,30.05,South,180,0.0,0.0,98,0.02,-RA,,0.02,WeatherDisplay:10.37,2013-07-09 23:02:00,
2013-07-09 19:07:00,74.5,73.9,30.05,South,180,0.0,0.0,98,0.02,-RA,,0.02,WeatherDisplay:10.37,2013-07-09 23:07:00,
2013-07-09 19:12:00,74.7,74.1,30.05,South,180,0.0,0.0,98,0.02,-RA,,0.02,WeatherDisplay:10.37,2013-07-09 23:12:00,
2013-07-09 19:17:00,74.7,74.1,30.05,South,180,0.0,0.0,98,0.02,-RA,,0.02,WeatherDisplay:10.37,2013-07-09 23:17:00,
2013-07-09 19:22:00,74.7,74.1,30.05,SSE,158,0.0,0.0,98,0.02,-RA,,0.02,WeatherDisplay:10.37,2013-07-09 23:22:00,
2013-07-09 19:27:00,74.7,74.1,30.05,SE,135,0.0,0.0,98,0.01,-RA,,0.02,WeatherDisplay:10.37,2013-07-09 23:27:00,
2013-07-09 19:32:00,74.7,73.8,30.05,SSE,158,0.0,0.0,97,0.01,-RA,,0.02,WeatherDisplay:10.37,2013-07-09 23:32:00,
2013-07-09 19:37:00,74.7,73.8,30.05,SE,135,0.0,0.0,97,0.00,-RA,,0.02,WeatherDisplay:10.37,2013-07-09 23:37:00,
2013-07-09 19:42:00,74.7,73.8,30.05,SE,135,0.0,0.0,97,0.00,-RA,,0.02,WeatherDisplay:10.37,2013-07-09 23:42:00,
2013-07-09 19:47:00,74.7,73.8,30.05,ESE,112,0.0,0.0,97,0.00,-RA,,0.02,WeatherDisplay:10.37,2013-07-09 23:47:00,
2013-07-09 19:52:00,74.3,73.4,30.05,East,90,0.0,0.0,97,0.00,-RA,,0.02,WeatherDisplay:10.37,2013-07-09 23:52:00,
2013-07-09 19:57:00,74.3,73.4,30.05,ESE,112,0.0,0.0,97,0.00,-RA,,0.02,WeatherDisplay:10.37,2013-07-09 23:57:00,
2013-07-09 20:02:00,73.9,73.0,30.05,East,90,0.0,0.0,97,0.00,-RA,,0.02,WeatherDisplay:10.37,2013-07-10 00:02:00,
2013-07-09 20:07:00,73.8,72.9,30.05,ESE,112,0.0,0.0,97,0.00,-RA,,0.02,WeatherDisplay:10.37,2013-07-10 00:07:00,
2013-07-09 20:12:00,73.8,72.9,30.05,ESE,112,0.0,0.0,97,0.00,CLR,,0.02,WeatherDisplay:10.37,2013-07-10 00:12:00,
2013-07-09 20:17:00,73.6,73.0,30.05,ESE,112,0.0,0.0,98,0.00,CLR,,0.02,WeatherDisplay:10.37,2013-07-10 00:17:00,
2013-07-09 20:22:00,73.4,72.8,30.05,SE,135,0.0,0.0,98,0.00,CLR,,0.02,WeatherDisplay:10.37,2013-07-10 00:22:00,
2013-07-09 20:27:00,73.2,72.6,30.06,SE,135,0.0,0.0,98,0.00,CLR,,0.02,WeatherDisplay:10.37,2013-07-10 00:27:00,
2013-07-09 20:32:00,73.0,72.4,30.06,SSE,158,0.0,0.0,98,0.00,CLR,,0.02,WeatherDisplay:10.37,2013-07-10 00:32:00,
2013-07-09 20:37:00,73.0,72.4,30.06,SE,135,0.0,0.0,98,0.00,CLR,,0.02,WeatherDisplay:10.37,2013-07-10 00:37:00,
2013-07-09 20:42:00,72.9,72.3,30.05,South,180,0.0,0.0,98,0.00,CLR,,0.02,WeatherDisplay:10.37,2013-07-10 00:42:00,
2013-07-09 20:47:00,72.7,72.1,30.05,SSE,158,0.0,0.0,98,0.00,CLR,,0.02,WeatherDisplay:10.37,2013-07-10 00:47:00,
2013-07-09 20:52:00,72.7,72.1,30.05,SW,225,0.0,0.0,98,0.00,CLR,,0.02,WeatherDisplay:10.37,2013-07-10 00:52:00,
2013-07-09 20:57:00,72.5,72.2,30.05,NE,45,0.0,0.0,99,0.00,CLR,,0.02,WeatherDisplay:10.37,2013-07-10 00:57:00,
2013-07-09 21:02:00,72.5,72.2,30.06,NE,45,0.0,0.0,99,0.00,CLR,,0.02,WeatherDisplay:10.37,2013-07-10 01:02:00,
2013-07-09 21:07:00,72.3,72.0,30.06,South,180,0.0,0.0,99,0.00,CLR,,0.02,WeatherDisplay:10.37,2013-07-10 01:07:00,
2013-07-09 21:12:00,72.3,72.0,30.06,South,180,0.0,0.0,99,0.00,FEW,,0.02,WeatherDisplay:10.37,2013-07-10 01:12:00,
2013-07-09 21:17:00,72.1,71.8,30.06,ESE,112,0.0,0.0,99,0.00,FEW,,0.02,WeatherDisplay:10.37,2013-07-10 01:17:00,
2013-07-09 21:22:00,72.1,71.8,30.06,SW,225,0.0,0.0,99,0.00,FEW,,0.02,WeatherDisplay:10.37,2013-07-10 01:22:00,
2013-07-09 21:27:00,72.1,71.8,30.06,ESE,112,0.0,0.0,99,0.00,FEW,,0.02,WeatherDisplay:10.37,2013-07-10 01:27:00,
2013-07-09 21:32:00,72.1,71.8,30.06,ESE,112,0.0,0.0,99,0.00,FEW,,0.02,WeatherDisplay:10.37,2013-07-10 01:32:00,
2013-07-09 21:37:00,72.1,71.8,30.06,ESE,112,0.0,0.0,99,0.00,FEW,,0.02,WeatherDisplay:10.37,2013-07-10 01:37:00,
2013-07-09 21:42:00,72.1,71.8,30.06,ESE,112,0.0,0.0,99,0.00,FEW,,0.02,WeatherDisplay:10.37,2013-07-10 01:42:00,
2013-07-09 21:47:00,72.1,71.8,30.06,NNE,22,0.0,0.0,99,0.00,FEW,,0.02,WeatherDisplay:10.37,2013-07-10 01:47:00,
2013-07-09 21:52:00,72.1,71.8,30.07,SSW,202,0.0,0.0,99,0.00,FEW,,0.02,WeatherDisplay:10.37,2013-07-10 01:52:00,
2013-07-09 21:57:00,72.0,71.7,30.07,South,180,0.0,0.0,99,0.00,FEW,,0.02,WeatherDisplay:10.37,2013-07-10 01:57:00,
2013-07-09 22:02:00,72.0,71.7,30.07,ESE,112,0.0,0.0,99,0.00,CLR,,0.02,WeatherDisplay:10.37,2013-07-10 02:02:00,
2013-07-09 22:07:00,72.0,71.7,30.07,SSW,202,0.0,0.0,99,0.00,CLR,,0.02,WeatherDisplay:10.37,2013-07-10 02:07:00,
2013-07-09 22:12:00,72.0,71.7,30.07,South,180,0.0,0.0,99,0.00,CLR,,0.02,WeatherDisplay:10.37,2013-07-10 02:12:00,
2013-07-09 22:17:00,72.0,71.7,30.07,ESE,112,0.0,0.0,99,0.00,CLR,,0.02,WeatherDisplay:10.37,2013-07-10 02:17:00,
2013-07-09 22:22:00,72.0,71.7,30.07,East,90,0.0,0.0,99,0.00,CLR,,0.02,WeatherDisplay:10.37,2013-07-10 02:22:00,
2013-07-09 22:27:00,71.8,71.5,30.07,ESE,112,0.0,0.0,99,0.00,CLR,,0.02,WeatherDisplay:10.37,2013-07-10 02:27:00,
2013-07-09 22:32:00,71.8,71.5,30.07,SW,225,0.0,0.0,99,0.00,CLR,,0.02,WeatherDisplay:10.37,2013-07-10 02:32:00,
2013-07-09 22:37:00,71.8,71.5,30.08,ESE,112,0.0,0.0,99,0.00,CLR,,0.02,WeatherDisplay:10.37,2013-07-10 02:37:00,
2013-07-09 22:42:00,71.6,71.3,30.08,SE,135,0.0,0.0,99,0.00,CLR,,0.02,WeatherDisplay:10.37,2013-07-10 02:42:00,
2013-07-09 22:47:00,71.6,71.3,30.08,SE,135,0.0,0.0,99,0.00,CLR,,0.02,WeatherDisplay:10.37,2013-07-10 02:47:00,
2013-07-09 22:52:00,71.6,71.3,30.08,South,180,0.0,0.0,99,0.00,CLR,,0.02,WeatherDisplay:10.37,2013-07-10 02:52:00,
2013-07-09 22:57:00,71.6,71.3,30.08,ENE,68,0.0,0.0,99,0.00,CLR,,0.02,WeatherDisplay:10.37,2013-07-10 02:57:00,
2013-07-09 23:02:00,71.6,71.3,30.08,SSE,158,0.0,0.0,99,0.00,CLR,,0.02,WeatherDisplay:10.37,2013-07-10 03:02:00,
2013-07-09 23:07:00,71.4,71.1,30.08,South,180,0.0,0.0,99,0.00,CLR,,0.02,WeatherDisplay:10.37,2013-07-10 03:07:00,
2013-07-09 23:12:00,71.4,71.1,30.08,SSW,202,0.0,0.0,99,0.00,CLR,,0.02,WeatherDisplay:10.37,2013-07-10 03:12:00,
2013-07-09 23:17:00,71.4,71.1,30.08,SSW,202,0.0,0.0,99,0.00,CLR,,0.02,WeatherDisplay:10.37,2013-07-10 03:17:00,
2013-07-09 23:22:00,71.4,71.1,30.08,NNW,338,0.0,0.0,99,0.00,CLR,,0.02,WeatherDisplay:10.37,2013-07-10 03:22:00,
2013-07-09 23:27:00,71.4,71.1,30.08,East,90,0.0,0.0,99,0.00,CLR,,0.02,WeatherDisplay:10.37,2013-07-10 03:27:00,
2013-07-09 23:32:00,71.4,71.1,30.08,SW,225,0.0,0.0,99,0.00,CLR,,0.02,WeatherDisplay:10.37,2013-07-10 03:32:00,
2013-07-09 23:37:00,71.4,71.1,30.08,SSE,158,0.0,0.0,99,0.00,CLR,,0.02,WeatherDisplay:10.37,2013-07-10 03:37:00,
2013-07-09 23:42:00,71.4,71.1,30.08,NE,45,0.0,0.0,99,0.00,CLR,,0.02,WeatherDisplay:10.37,2013-07-10 03:42:00,
2013-07-09 23:47:00,71.4,71.1,30.08,East,90,0.0,0.0,99,0.00,CLR,,0.02,WeatherDisplay:10.37,2013-07-10 03:47:00,
2013-07-09 23:52:00,71.4,71.1,30.07,ESE,112,0.0,0.0,99,0.00,CLR,,0.02,WeatherDisplay:10.37,2013-07-10 03:52:00,
2013-07-09 23:57:00,71.4,71.1,30.07,SSE,158,0.0,0.0,99,0.00,CLR,,0.02,WeatherDisplay:10.37,2013-07-10 03:57:00,